Terminal Aerodrome Forecast
Issued by NWS Miami, FL

Home | Current Version | Previous Version | Text Only | Print | Product List | Glossary On
Versions: 1 2 3 4 5 6 7 8 9 10 11 12 13 14 15 16 17 18 19 20 21 22 23 24 25 26 27 28 29 30 31 32 33 34 35 36 37 38 39 40 41 42 43 44 45 46 47 48 49 50
000
FTUS42 KMFL 191906 AAA
TAFFLL
TAF AMD
KFLL 191906Z 1919/2018 VRB02KT P6SM -RA SCT050 BKN070 OVC090
     FM200000 05006KT P6SM VCSH SCT030 BKN070=

USA.gov is the U.S. government's official web portal to all federal, state and local government web resources and services.